{"data":{"norad_id":48093,"epoch":"2026-05-24T10:27:54.484128Z","epoch_age_seconds":126979,"freshness":"FRESH","line1":"1 48093U 21027B   26144.43604727 -.00002611  00000+0 -72463-4 0  9993","line2":"2 48093  53.1605 162.6290 0001298 113.9592 246.1545 15.31670799284269","mean_motion":15.31670799,"eccentricity":0.0001298,"inclination_deg":53.1605,"raan_deg":162.629,"arg_perigee_deg":113.9592,"mean_anomaly_deg":246.1545,"bstar":-7.2463e-5,"rev_number":28426,"period_min":94.014980303871,"perigee_km":469.93804773727,"apogee_km":471.7160388029,"semimajor_km":6848.9640432701,"source":"CELESTRAK","updated_at":"2026-05-25T13:38:16.640852Z"}}